[[{"header":{"parameterUnit":"m.s-1","parameterCategory":1,"la1":30.2991,"la2":30.254,"lo1":-89.0895,"lo2":-89.0444,"dy":0.0017,"dx":0.0017,"nx":28,"ny":28,"refTime":"2023-10-16T21:00:00:Z","depth":0,"parameterNumber":2,"parameterNumberName":"U-component_of_WINDS"},"data":[0,0,0,0,0,0,0,0,0,0,0,0,0,0,0,0,0,0,0,0,0,0,0,0,0,0,0,0,0,0,0,0,0,0,0,0,0,0,0,0,0,0,0,0,0,0,0,0,0,0,0,0,0,0,0,0,0,0,0.163,0.1628,0,0.1495,0.1493,0.1491,0.1352,0.135,0.1348,0.1346,0.1205,0.1203,0.1201,0,0,0,0,0,0,0,0,0,0,0,0,0,0.1764,0.1762,0.163,0.1628,0.1627,0.1495,0.1493,0.1491,0.1352,0.135,0.1348,0.1345,0.1205,0.1203,0.1201,0,0,0,0,0,0,0,0,0,0,0,0,0,0.1675,0.1762,0.163,0.1541,0.1532,0.1495,0.1493,0.1491,0.1353,0.135,0.1347,0.1344,0.1206,0.1203,0.12,0.1239,0,0,0.1191,0.119,0,0,0,0,0,0,0,0,0.168,0.167,0.1556,0.1547,0.1537,0.1437,0.1488,0.1406,0.1353,0.1421,0.1346,0.1343,0.1284,0.1275,0.1255,0.1232,0.1226,0.1191,0.1189,0.1188,0.1187,0,0,0,0,0,0,0,0.1686,0.1675,0.1576,0.1555,0.1543,0.1507,0.1491,0.1472,0.137,0.1415,0.1404,0.139,0.1278,0.1259,0.1251,0.1224,0.1191,0.1188,0.1186,0.1185,0.1223,0.1226,0,0,0,0,0,0,0.1707,0.1681,0.158,0.1572,0.1603,0.1507,0.1489,0.1472,0.137,0.1352,0.1393,0.1384,0.1265,0.1255,0.1245,0.1282,0.1188,0.1185,0.1183,0.1221,0.1224,0.1227,0,0,0,0,0,0,0.171,0.1699,0.1586,0.1624,0.1607,0.1508,0.149,0.1471,0.1451,0.1353,0.1334,0.1392,0.1262,0.125,0.1241,0.1276,0.1184,0.1181,0.1217,0.1222,0.1226,0.1359,0,0,0,0,0,0,0.1715,0.1701,0.1716,0.1625,0.1605,0.1586,0.1492,0.147,0.1447,0.1434,0.1347,0.133,0.1259,0.1246,0.1238,0.127,0.1178,0.1214,0.1219,0.1224,0.1351,0.1367,0.1381,0,0,0,0,0,0.172,0.1758,0.1717,0.1706,0.1622,0.1588,0.1576,0.1495,0.145,0.1463,0.14,0.1333,0.1274,0.1247,0.1236,0.1268,0.1211,0.1218,0.1224,0.1344,0.1364,0.138,0,0,0,0,0,0,0.1855,0.1745,0.1698,0.1709,0.1659,0.1565,0.1579,0.1519,0.148,0.147,0.1369,0.1351,0.1354,0.1309,0.1282,0.1299,0.1233,0.1237,0.1327,0.1345,0.136,0.137,0.1176,0,0,0,0,0,0.1886,0.1869,0.1773,0.1792,0.1769,0.1679,0.1661,0.1603,0.1547,0.1525,0.1461,0.1408,0.1377,0.1359,0.1325,0.1343,0.1321,0.136,0.1375,0.1387,0.1392,0.1397,0.1412,0.1248,0.1248,0.1248,0,0,0.195,0.1888,0.1883,0.1818,0.1772,0.1755,0.1662,0.1649,0.1635,0.1522,0.151,0.1462,0.1396,0.1401,0.14,0.1364,0.1433,0.1396,0.1407,0.1404,0.1405,0.1421,0.1435,0.1252,0.1251,0.1251,0,0,0.2058,0.201,0.2019,0.1976,0.1908,0.1847,0.185,0.1764,0.1728,0.1715,0.163,0.1611,0.156,0.1516,0.1487,0.1578,0.1514,0.1569,0.1648,0.1653,0.1666,0.1677,0.1708,0.1721,0.1575,0.1575,0.1575,0,0.2146,0.2118,0.2032,0.2023,0.1996,0.1894,0.1902,0.1863,0.1788,0.1771,0.1733,0.1666,0.1614,0.1607,0.1629,0.1609,0.1608,0.1579,0.1672,0.1682,0.1691,0.1719,0.1731,0.1582,0.1581,0.1581,0.158,0,0.2229,0.2211,0.2226,0.2157,0.2132,0.2132,0.2044,0.2028,0.1972,0.1915,0.1902,0.1836,0.1787,0.1781,0.1725,0.1765,0.1745,0.1691,0.1622,0.1715,0.174,0.175,0.1592,0.159,0.1588,0.1586,0,0,0.2418,0.2301,0.2308,0.2274,0.2192,0.2176,0.217,0.2123,0.2111,0.2062,0.2054,0.2013,0.1962,0.1929,0.1867,0.1873,0.1947,0.1817,0.1814,0.1843,0.1985,0.2026,0.204,0.1904,0.1906,0.1907,0.199,0,0.2511,0.2496,0.2418,0.2425,0.2407,0.2309,0.2304,0.2252,0.2199,0.2174,0.2114,0.2086,0.2021,0.2001,0.2002,0.1938,0.1974,0.1931,0.1894,0.1894,0.1913,0.2053,0.2096,0.2177,0.1999,0.2001,0.2002,0,0.2617,0.2576,0.2582,0.2499,0.2488,0.2485,0.2434,0.2413,0.2351,0.2311,0.2275,0.2206,0.2193,0.213,0.2109,0.2082,0.2061,0.2028,0.2029,0.2022,0.1953,0.2048,0.2201,0.2214,0.2016,0.2015,0.2014,0,0.2753,0.2699,0.2695,0.267,0.2573,0.2573,0.2532,0.2468,0.2444,0.2399,0.2382,0.2337,0.2312,0.2277,0.2197,0.2159,0.2185,0.2115,0.215,0.2153,0.216,0.216,0.2311,0.2149,0.2149,0.2149,0.2148,0,0.2864,0.2872,0.2755,0.2753,0.2757,0.2666,0.2673,0.2623,0.2566,0.2551,0.2464,0.2451,0.2347,0.2322,0.2259,0.225,0.224,0.2206,0.2189,0.2214,0.2218,0.2199,0.219,0.2152,0.2151,0.215,0.215,0,0.3017,0.2939,0.2929,0.2838,0.2815,0.2823,0.2744,0.2737,0.2678,0.266,0.2651,0.2558,0.2523,0.244,0.2384,0.2341,0.2349,0.2319,0.2371,0.236,0.2399,0.2397,0.2542,0.2556,0.2387,0.2389,0.239,0,0.3093,0.3096,0.3006,0.299,0.2954,0.2929,0.2905,0.2815,0.2792,0.2722,0.2723,0.2682,0.2645,0.2595,0.2521,0.2477,0.2444,0.2498,0.2437,0.2461,0.2443,0.2444,0.2443,0.2512,0.2514,0.2516,0.2517,0,0.3235,0.3196,0.3165,0.312,0.3093,0.3053,0.3008,0.2999,0.2898,0.2877,0.2841,0.2813,0.2755,0.2715,0.266,0.2615,0.2549,0.2537,0.2543,0.2567,0.2597,0.258,0.2407,0.2534,0.2532,0.2531,0.253,0.253,0.335,0.3348,0.3285,0.3252,0.3209,0.3168,0.3157,0.3097,0.3067,0.3014,0.2962,0.2932,0.2868,0.2787,0.2747,0.2721,0.2687,0.2696,0.2697,0.2701,0.2711,0.2602,0.2711,0.271,0.2709,0.2709,0.2709,0,0.3487,0.3441,0.3412,0.3352,0.3326,0.3267,0.3214,0.3196,0.3171,0.3118,0.3083,0.3041,0.3002,0.2925,0.2878,0.2872,0.284,0.2862,0.2861,0.2852,0.2745,0.2744,0.2889,0.2889,0.2889,0.2889,0.2889,0.2889,0.3555,0.3548,0.3502,0.3473,0.3426,0.3396,0.3371,0.3332,0.3289,0.3248,0.3215,0.3166,0.3102,0.305,0.3011,0.2989,0.2975,0.3007,0.2976,0.2877,0.286,0.2844,0.2842,0.3006,0.3006,0.3085,0.3086,0.3086]},{"header":{"parameterUnit":"m.s-1","parameterCategory":1,"la1":30.2991,"la2":30.254,"lo1":-89.0895,"lo2":-89.0444,"dy":0.0017,"dx":0.0017,"nx":28,"ny":28,"refTime":"2023-10-16T21:00:00:Z","depth":0,"parameterNumber":3,"parameterNumberName":"V-component_of_WINDS"},"data":[0,0,0,0,0,0,0,0,0,0,0,0,0,0,0,0,0,0,0,0,0,0,0,0,0,0,0,0,0,0,0,0,0,0,0,0,0,0,0,0,0,0,0,0,0,0,0,0,0,0,0,0,0,0,0,0,0,0,-0.0322,-0.0323,0,-0.0382,-0.0382,-0.0383,-0.0469,-0.047,-0.0472,-0.0473,-0.0532,-0.0533,-0.0533,0,0,0,0,0,0,0,0,0,0,0,0,0,-0.0282,-0.0282,-0.0322,-0.0323,-0.0323,-0.0382,-0.0382,-0.0383,-0.0468,-0.047,-0.0472,-0.0474,-0.0532,-0.0533,-0.0533,0,0,0,0,0,0,0,0,0,0,0,0,0,-0.0316,-0.0282,-0.0322,-0.0373,-0.0378,-0.0381,-0.0382,-0.0383,-0.0468,-0.047,-0.0473,-0.0475,-0.0532,-0.0533,-0.0533,-0.049,0,0,-0.0534,-0.0534,0,0,0,0,0,0,0,0,-0.0314,-0.0317,-0.0365,-0.037,-0.0375,-0.042,-0.039,-0.0419,-0.0468,-0.0434,-0.0473,-0.0476,-0.0493,-0.0497,-0.0503,-0.0493,-0.0495,-0.0534,-0.0534,-0.0534,-0.0534,0,0,0,0,0,0,0,-0.0311,-0.0315,-0.0346,-0.0365,-0.0372,-0.0393,-0.04,-0.0396,-0.045,-0.0437,-0.0443,-0.0449,-0.0496,-0.0503,-0.0505,-0.0496,-0.0534,-0.0534,-0.0534,-0.0534,-0.0455,-0.0453,0,0,0,0,0,0,-0.0302,-0.0313,-0.0344,-0.0347,-0.035,-0.0392,-0.04,-0.0403,-0.0451,-0.046,-0.0447,-0.0453,-0.0501,-0.0505,-0.0507,-0.0461,-0.0534,-0.0534,-0.0535,-0.0458,-0.0455,-0.0452,0,0,0,0,0,0,-0.03,-0.0304,-0.0341,-0.0332,-0.0338,-0.039,-0.0393,-0.0403,-0.041,-0.0458,-0.0468,-0.0444,-0.0503,-0.0507,-0.0494,-0.0464,-0.0534,-0.0535,-0.046,-0.0457,-0.0454,-0.0367,0,0,0,0,0,0,-0.0299,-0.0303,-0.0287,-0.0331,-0.0338,-0.0327,-0.0391,-0.0403,-0.041,-0.0418,-0.0458,-0.0466,-0.0505,-0.0493,-0.0494,-0.0466,-0.0535,-0.0463,-0.0459,-0.0455,-0.0373,-0.0361,-0.0351,0,0,0,0,0,-0.0297,-0.0259,-0.0285,-0.0289,-0.032,-0.0325,-0.0329,-0.0375,-0.0407,-0.0392,-0.0424,-0.0465,-0.0468,-0.0491,-0.0493,-0.0464,-0.0465,-0.046,-0.0455,-0.0378,-0.0363,-0.0351,0,0,0,0,0,0,-0.0209,-0.0266,-0.0296,-0.0271,-0.0293,-0.0339,-0.0321,-0.0358,-0.037,-0.0377,-0.0433,-0.0442,-0.0422,-0.0442,-0.0467,-0.0426,-0.0473,-0.0468,-0.0413,-0.04,-0.0389,-0.0384,-0.0535,0,0,0,0,0,-0.0187,-0.0187,-0.0237,-0.021,-0.0219,-0.0268,-0.0272,-0.0306,-0.033,-0.0339,-0.037,-0.0392,-0.0398,-0.04,-0.0408,-0.0377,-0.0387,-0.0358,-0.0347,-0.0338,-0.0333,-0.0318,-0.0306,-0.0436,-0.0436,-0.0436,0,0,-0.0141,-0.0172,-0.0168,-0.0193,-0.0214,-0.0212,-0.0275,-0.027,-0.027,-0.0339,-0.0328,-0.0352,-0.038,-0.0357,-0.0349,-0.0374,-0.0299,-0.0331,-0.0324,-0.0323,-0.0312,-0.0299,-0.0288,-0.0432,-0.0433,-0.0433,0,0,-0.0057,-0.008,-0.0061,-0.0081,-0.0112,-0.0145,-0.014,-0.0182,-0.02,-0.0191,-0.0243,-0.0243,-0.0252,-0.027,-0.028,-0.0204,-0.0243,-0.0205,-0.0148,-0.0134,-0.0123,-0.0115,-0.0088,-0.0077,-0.02,-0.02,-0.02,0,0.0005,0.0005,-0.0046,-0.0039,-0.0048,-0.0112,-0.0093,-0.011,-0.0141,-0.0146,-0.0174,-0.0187,-0.021,-0.0193,-0.0175,-0.0181,-0.0178,-0.0201,-0.0121,-0.0112,-0.0105,-0.008,-0.007,-0.0195,-0.0196,-0.0196,-0.0197,0,0.0081,0.0082,0.0101,0.0072,0.0064,0.0078,0.0028,0.0027,-0.0007,-0.0037,-0.0027,-0.0058,-0.0074,-0.0072,-0.0104,-0.006,-0.0075,-0.0111,-0.0158,-0.0087,-0.0064,-0.0055,-0.0188,-0.019,-0.0192,-0.0193,0,0,0.0221,0.0162,0.017,0.0155,0.0116,0.0115,0.0125,0.0109,0.0109,0.0089,0.0096,0.0089,0.0055,0.0043,0.0008,0.0021,0.0082,-0.0017,-0.0019,0.0003,0.0129,0.0157,0.0169,0.0056,0.0058,0.0059,0.0131,0,0.0299,0.0312,0.0266,0.0292,0.0292,0.023,0.0239,0.0216,0.0187,0.0183,0.0151,0.0148,0.0103,0.0095,0.0105,0.0073,0.0107,0.0067,0.0062,0.0063,0.0072,0.018,0.021,0.028,0.014,0.0141,0.0142,0,0.0391,0.0375,0.0401,0.0358,0.0357,0.0365,0.0346,0.0343,0.0315,0.0293,0.0279,0.0238,0.0244,0.0198,0.0206,0.018,0.0174,0.0158,0.016,0.0158,0.0108,0.0182,0.0301,0.0312,0.0156,0.0155,0.0154,0,0.0491,0.0475,0.0488,0.0478,0.0429,0.0436,0.0416,0.0386,0.0379,0.0362,0.0356,0.0341,0.0333,0.0321,0.0277,0.0247,0.029,0.024,0.0272,0.0273,0.0285,0.0285,0.0405,0.0281,0.0281,0.0281,0.028,0,0.0582,0.0601,0.0532,0.0541,0.0559,0.0505,0.0524,0.0498,0.0471,0.0473,0.0419,0.0422,0.0363,0.0359,0.0324,0.0336,0.0332,0.0315,0.0306,0.032,0.0322,0.0317,0.0311,0.0283,0.0283,0.0282,0.0282,0,0.0698,0.0653,0.0663,0.0615,0.0604,0.0619,0.0578,0.0584,0.0551,0.0554,0.0552,0.0501,0.0494,0.0447,0.043,0.0406,0.0431,0.0411,0.044,0.0434,0.0469,0.0467,0.0591,0.0604,0.0472,0.0473,0.0474,0,0.0759,0.0772,0.0725,0.0722,0.0704,0.0701,0.0693,0.0639,0.0633,0.0601,0.0611,0.0599,0.0586,0.0577,0.0539,0.0524,0.0505,0.0549,0.0502,0.0516,0.0505,0.0506,0.0506,0.0559,0.0561,0.0563,0.0564,0,0.0874,0.0851,0.0841,0.0824,0.0815,0.0799,0.078,0.078,0.0721,0.0717,0.0708,0.0699,0.068,0.0669,0.0647,0.0626,0.0586,0.0578,0.0585,0.0601,0.0617,0.0609,0.0468,0.0576,0.0575,0.0574,0.0573,0.0573,0.0964,0.0972,0.094,0.0931,0.091,0.0893,0.0896,0.0863,0.0855,0.0835,0.0804,0.0799,0.0769,0.0737,0.0719,0.0714,0.0691,0.0701,0.0703,0.0707,0.0714,0.0617,0.071,0.071,0.071,0.0709,0.0709,0,0.1076,0.1052,0.1044,0.1018,0.1011,0.0971,0.0947,0.0944,0.0941,0.0916,0.0905,0.0894,0.0882,0.0843,0.0827,0.0831,0.0811,0.0828,0.0828,0.0824,0.0736,0.0732,0.0844,0.0844,0.0844,0.0844,0.0844,0.0844,0.1133,0.1144,0.1117,0.1117,0.1093,0.1088,0.1077,0.1061,0.1041,0.1031,0.1021,0.0995,0.0964,0.0945,0.0932,0.092,0.0917,0.0941,0.0923,0.0843,0.083,0.0818,0.0813,0.094,0.0941,0.101,0.1011,0.1012]}]]